AGROMETEOROLOŠKI PORTAL

vinorodna pokrajina

Temelj dobrega kmetovanja

Pregled podatkov za lokacijo BOHINJSKA ČEŠNJICA - ARSO, meteorološka postaja 153

Pregled senzorjev na lokaciji

ID Ime Zadnja
vrednost
Datum in čas
meritve
(lokalni čas)
Tip
senzorja
5931 Padavine (mm) 0 mm 4.10.2022 15:30 ARSO
5933 Relativna zračna vlaga (2 m) (% RH) 55 % RH 4.10.2022 15:30 ARSO
5932 Temperatura (2 m) (°C) 18,7 °C 4.10.2022 15:30 ARSO

Pregled podatkov zadnjih 24 ur

Zap.
št.
Datum in čas
(lokalni čas)
BOHINJSKA ČEŠNJICA - ARSO
Padavine Relativna
zračna
vlaga
(2
m)
Temperatura
(2
m)
1 4.10.2022 15:30 0 55 18,7
2 4.10.2022 15:00 0 54 19
3 4.10.2022 14:30 0 54,7 19,1
4 4.10.2022 14:00 0 56,3 18,6
5 4.10.2022 13:30 0 57,3 17,8
6 4.10.2022 13:00 0 59,7 16,9
7 4.10.2022 12:30 0 63,3 15,4
8 4.10.2022 12:00 0 66,7 14,6
9 4.10.2022 11:30 0 68,7 13,6
10 4.10.2022 11:00 0 76,3 12,6
11 4.10.2022 10:30 0 84 11
12 4.10.2022 10:00 0 88 10,4
13 4.10.2022 09:30 0 90,7 9,6
14 4.10.2022 09:00 0 96 7,6
15 4.10.2022 08:30 0 95,7 6,8
16 4.10.2022 08:00 0 94,7 6,8
17 4.10.2022 07:30 0 95 7,2
18 4.10.2022 07:00 0 95,3 7,8
19 4.10.2022 06:30 0 96 7,8
20 4.10.2022 06:00 0 96 7,7
21 4.10.2022 05:30 0 96 7,5
22 4.10.2022 05:00 0 96 7,5
23 4.10.2022 04:30 0 96 6,9
24 4.10.2022 04:00 0 95,3 6,3
25 4.10.2022 03:30 0 95 6,6
26 4.10.2022 03:00 0 94,7 6,8
27 4.10.2022 02:30 0 94 6,9
28 4.10.2022 02:00 0 94 7,3
29 4.10.2022 01:30 0 94,5 7,6
30 4.10.2022 01:00 0 94,7 7,6
31 4.10.2022 00:30 0 93,5 7,6
32 4.10.2022 00:00 0 93 7,6
33 3.10.2022 23:30 0 93 8
34 3.10.2022 23:00 0 91,7 8
35 3.10.2022 22:30 0 91 8,5
36 3.10.2022 22:00 0 89,3 8,9
37 3.10.2022 21:30 0 88,7 9,5
38 3.10.2022 21:00 0 88 9,8
39 3.10.2022 20:30 0 83,7 10,9
40 3.10.2022 20:00 0 83,3 11,6
41 3.10.2022 19:30 0 80,7 12,4
42 3.10.2022 19:00 0 76,3 14
43 3.10.2022 18:30 0 70,7 15,7
44 3.10.2022 18:00 0 58,3 18,1
45 3.10.2022 17:30 0 52,7 19,1
46 3.10.2022 17:00 0 48 19,8